This demonstration page uses our WeatherBlox Daily Observations layout. Learn more.

39.92423, -83.80882

Hourly Observations for May 10, 2015

Temp ( °F °C ) Dew Point ( °F °C ) Humidity (%) Winds ( mph kmh ) Pressure ( in mb ) Visibility ( mi km ) Precip ( " mm )
12:56 am 00:56 Clear 68 20 64 17.7 87 87 NE 5 7 30.08 1019 7 11.26538 0 0
1:56 am 01:56 Mostly Clear with Mist and Fog 67 19.4 65 18.3 93 93 ENE 3 6 30.07 1018 6 9.65604 0 0
2:56 am 02:56 Partly Cloudy with Mist and Fog 66 18.8 64 17.7 93 93 E 5 7 30.06 1018 6 9.65604 0 0
3:56 am 03:56 Mostly Cloudy with Mist and Fog 68 20 65 18.3 90 90 SSW 5 7 30.07 1018 6 9.65604 0 0
4:56 am 04:56 Mostly Cloudy with Mist and Fog 65 18.3 64 17.7 96 96 Calm 30.06 1018 6 9.65604 0 0
5:56 am 05:56 Mostly Cloudy with Mist and Fog 65 18.3 64 17.7 96 96 Calm 30.06 1018 6 9.65604 0 0
6:56 am 06:56 Partly Cloudy with Mist and Fog 66 18.8 64 17.7 93 93 SE 6 9 30.06 1018 4 6.43736 0 0
7:56 am 07:56 Hazy 69 20.5 64 17.7 84 84 SSE 7 11 30.09 1019 5 8.0467 0 0
8:56 am 08:56 Hazy 75 23.8 64 17.7 69 69 SSE 7 11 30.1 1019 6 9.65604 0 0
9:56 am 09:56 Hazy 78 25.5 64 17.7 62 62 S 7 11 30.09 1019 5 8.0467 0 0
10:56 am 10:56 Hazy 81 27.2 64 17.7 56 56 S 7 11 30.09 1019 6 9.65604 0 0
11:56 am 11:56 Hazy 81 27.2 62 16.6 52 52 SSW 10 17 30.09 1019 6 9.65604 0 0
12:56 pm 12:56 Hazy 81 27.2 63 17.2 54 54 SW 12 19 30.08 1019 5 8.0467 0 0
1:56 pm 13:56 Hazy 80 26.6 62 16.6 54 54 SSW 12 19 30.08 1019 6 9.65604 0 0
2:56 pm 14:56 Hazy 82 27.7 62 16.6 51 51 S 10 17 30.06 1018 6 9.65604 0 0
3:56 pm 15:56 Hazy 85 29.4 61 16.1 45 45 S 13 20 30.03 1017 6 9.65604 0 0
4:56 pm 16:56 Hazy 83 28.3 62 16.6 49 49 SSW 15 24 30.03 1017 5 8.0467 0 0
5:56 pm 17:56 Hazy 83 28.3 61 16.1 48 48 SW 10 17 30.03 1017 5 8.0467 0 0
6:56 pm 18:56 Hazy 82 27.7 58 14.4 44 44 SSW 10 17 30.03 1017 5 8.0467 0 0
7:56 pm 19:56 Hazy 80 26.6 59 15 49 49 SSW 9 15 30.02 1017 6 9.65604 0 0
8:56 pm 20:56 Clear 76 24.4 60 15.5 58 58 S 5 7 30.02 1017 7 11.26538 0 0
9:56 pm 21:56 Clear 73 22.7 61 16.1 66 66 S 3 6 30.04 1017 7 11.26538 0 0
10:56 pm 22:56 Mostly Clear 71 21.6 61 16.1 71 71 SSW 3 6 30.04 1017 7 11.26538 0 0
11:56 pm 23:56 Partly Cloudy 73 22.7 62 16.6 69 69 S 5 7 30.05 1018 7 11.26538 0 0

Powered by AerisWeather